M I D A S
Marine Information and Data Acquisition System
Tripno 1184 of the Zeeleeuw from 2006-11-28 08:03:03 to 2006-11-28 14:25:56
Back to CruiseResearch ActivitiesStationsMapUnderway DataData graphs

EquipmentUnitsComment
TimeDGPSUTC
LatitudeDGPSDM.mWGS84
LongitudeDGPSDM.mWGS84
TemperatureSBE03/SBE38deg celciusITS90
ConductivitySBE21S/mITS90
SalinitySBE21 Practical Salinity Units
ChlorophylAChelsea fluorimeterg/lCalibrated in Aceton
Missing or incorrect values are displayed as -999
Sea surface data collected by the RV Zeeleeuw from 2006-11-28 07:55:09 to 2006-11-28 08:31:48
Time Latitude Longitude Temperature Conductivity Salinity ChlorophylA
2006-11-28 07:55:18 51°13.599 2°56.093 -999 0.057166 0.337246 -2.871232
2006-11-28 07:55:23 51°13.599 2°56.092 -999 0.057166 0.337246 -2.871232
2006-11-28 07:55:28 51°13.6 2°56.09 -999 0.057166 0.337246 -2.871232
2006-11-28 07:55:34 51°13.601 2°56.087 -999 0.057166 0.337246 -2.871232
2006-11-28 07:55:38 51°13.601 2°56.085 -999 0.057166 0.337246 -2.871232
2006-11-28 07:55:44 51°13.602 2°56.081 -999 0.057269 0.337872 -2.871232
2006-11-28 07:55:49 51°13.604 2°56.077 -999 0.057269 0.337879 -2.871232
2006-11-28 07:55:54 51°13.605 2°56.073 -999 0.057166 0.337253 -2.871232
2006-11-28 07:55:59 51°13.606 2°56.068 -999 0.057166 0.337253 -2.871232
2006-11-28 07:56:04 51°13.608 2°56.063 -999 0.057166 0.33726 -2.871232
2006-11-28 07:56:09 51°13.61 2°56.057 -999 0.057166 0.33726 -2.871232
2006-11-28 07:56:14 51°13.611 2°56.051 -999 0.057166 0.33726 -2.871232
2006-11-28 07:56:19 51°13.613 2°56.045 -999 0.057166 0.33726 -2.871232
2006-11-28 07:56:24 51°13.615 2°56.039 -999 0.057166 0.33726 -2.871232
2006-11-28 07:56:29 51°13.616 2°56.032 -999 0.057166 0.33726 -2.871232
2006-11-28 07:56:34 51°13.618 2°56.025 -999 0.057166 0.33726 -2.871232
2006-11-28 07:56:39 51°13.62 2°56.019 -999 0.057166 0.33726 -2.871232
2006-11-28 07:56:44 51°13.622 2°56.012 -999 0.057166 0.337268 -2.871232
2006-11-28 07:56:49 51°13.624 2°56.004 -999 0.057166 0.337268 -2.871232
2006-11-28 07:56:54 51°13.626 2°55.997 -999 0.057166 0.337268 -2.871232
2006-11-28 07:56:59 51°13.627 2°55.99 -999 0.057166 0.337268 -2.871232
2006-11-28 07:57:04 51°13.63 2°55.983 -999 0.057166 0.337275 -2.871232
2006-11-28 07:57:09 51°13.632 2°55.975 -999 0.057166 0.337275 -2.871232
2006-11-28 07:57:14 51°13.634 2°55.968 -999 0.057166 0.337275 -2.871232
2006-11-28 07:57:19 51°13.636 2°55.96 -999 0.057166 0.337275 -2.871232
2006-11-28 07:57:24 51°13.639 2°55.953 -999 0.057166 0.337275 -2.871232
2006-11-28 07:57:29 51°13.641 2°55.946 -999 0.057166 0.337282 -2.871232
2006-11-28 07:57:34 51°13.644 2°55.938 -999 0.057166 0.337282 -2.871232
2006-11-28 07:57:39 51°13.647 2°55.93 -999 0.057166 0.337282 -2.871232
2006-11-28 07:57:44 51°13.65 2°55.923 -999 0.057166 0.337282 -2.871232
2006-11-28 07:57:49 51°13.653 2°55.915 -999 0.057166 0.337282 -2.871232
2006-11-28 07:57:54 51°13.656 2°55.907 -999 0.057166 0.33729 -2.871232
2006-11-28 07:57:59 51°13.659 2°55.899 -999 0.057166 0.33729 -2.871232
2006-11-28 07:58:04 51°13.662 2°55.891 -999 0.057166 0.33729 -2.871232
2006-11-28 07:58:09 51°13.665 2°55.884 -999 0.057166 0.33729 -2.871232
2006-11-28 07:58:14 51°13.668 2°55.875 -999 0.057166 0.33729 -2.871232
2006-11-28 07:58:19 51°13.671 2°55.867 -999 0.057166 0.33729 -2.871232
2006-11-28 07:58:24 51°13.674 2°55.86 -999 0.057166 0.337297 -2.871232
2006-11-28 07:58:29 51°13.677 2°55.851 -999 0.057166 0.337297 -2.871232
2006-11-28 07:58:34 51°13.681 2°55.843 -999 0.057166 0.337297 -2.871232
2006-11-28 07:58:39 51°13.684 2°55.834 -999 0.057166 0.337297 -2.871232
2006-11-28 07:58:44 51°13.688 2°55.826 -999 0.057166 0.337304 -2.871232
2006-11-28 07:58:49 51°13.691 2°55.817 -999 0.057166 0.337304 -2.871232
2006-11-28 07:58:54 51°13.694 2°55.809 -999 0.057166 0.337304 -2.871232
2006-11-28 07:58:59 51°13.697 2°55.8 -999 0.057166 0.337304 -2.871232
2006-11-28 07:59:04 51°13.7 2°55.792 -999 0.057269 0.337938 -2.871232
2006-11-28 07:59:09 51°13.702 2°55.784 -999 0.057269 0.337938 -2.871232
2006-11-28 07:59:14 51°13.705 2°55.776 -999 0.057269 0.337938 -2.871232
2006-11-28 07:59:19 51°13.707 2°55.767 -999 0.057166 0.337311 -2.871232
2006-11-28 07:59:24 51°13.709 2°55.76 -999 0.057269 0.337945 -2.871232
2006-11-28 07:59:29 51°13.711 2°55.752 -999 0.057166 0.337319 -2.871232
2006-11-28 07:59:34 51°13.712 2°55.745 -999 0.057166 0.337326 -2.871232
2006-11-28 07:59:39 51°13.714 2°55.737 -999 0.057166 0.337326 -2.871232
2006-11-28 07:59:44 51°13.715 2°55.73 -999 0.057166 0.337326 -2.871232
2006-11-28 07:59:48 51°13.716 2°55.725 -999 0.057269 0.337953 -2.871232
2006-11-28 07:59:54 51°13.717 2°55.718 -999 0.057166 0.337326 -2.871232
2006-11-28 07:59:58 51°13.718 2°55.714 -999 0.057269 0.33796 -2.871232
2006-11-28 08:00:03 51°13.719 2°55.711 -999 0.057166 0.337333 -2.871232
2006-11-28 08:00:08 51°13.72 2°55.709 -999 0.057166 0.337333 -2.871232
2006-11-28 08:00:13 51°13.72 2°55.709 -999 0.057166 0.337341 -2.871232
2006-11-28 08:00:18 51°13.721 2°55.711 -999 0.057166 0.337355 -2.871232
2006-11-28 08:00:23 51°13.723 2°55.714 -999 0.057166 0.33737 -2.871232
2006-11-28 08:00:28 51°13.725 2°55.717 -999 0.057166 0.337377 -2.871232
2006-11-28 08:00:33 51°13.728 2°55.721 -999 0.057269 0.338011 -2.871232
2006-11-28 08:00:38 51°13.731 2°55.725 -999 0.057269 0.338011 -2.871232
2006-11-28 08:00:43 51°13.733 2°55.727 -999 0.057166 0.337384 -2.871232
2006-11-28 08:00:48 51°13.736 2°55.729 -999 0.057166 0.337384 -2.871232
2006-11-28 08:00:54 51°13.737 2°55.731 -999 0.057166 0.337384 -2.871232
2006-11-28 08:00:59 51°13.738 2°55.731 -999 0.057166 0.337384 -2.871232
2006-11-28 08:01:03 51°13.738 2°55.732 -999 0.057269 0.338004 -2.871232
2006-11-28 08:01:08 51°13.738 2°55.731 -999 0.057269 0.338004 -2.871232
2006-11-28 08:01:13 51°13.737 2°55.73 -999 0.057269 0.337989 -2.871232
2006-11-28 08:01:18 51°13.736 2°55.729 -999 0.057166 0.337363 -2.871232
2006-11-28 08:01:24 51°13.734 2°55.727 -999 0.057269 0.337975 -2.871232
2006-11-28 08:01:29 51°13.731 2°55.724 -999 0.057166 0.337341 -2.871232
2006-11-28 08:01:34 51°13.729 2°55.722 -999 0.057269 0.337967 -2.871232
2006-11-28 08:01:39 51°13.727 2°55.72 -999 0.057269 0.337967 -2.871232
2006-11-28 08:01:44 51°13.725 2°55.718 -999 0.057166 0.337333 -2.871232
2006-11-28 08:01:49 51°13.723 2°55.716 -999 0.057166 0.337333 -2.871232
2006-11-28 08:01:54 51°13.722 2°55.715 -999 0.057166 0.337333 -2.871232
2006-11-28 08:01:59 51°13.721 2°55.713 -999 0.057166 0.337333 -2.871232
2006-11-28 08:02:04 51°13.721 2°55.713 -999 0.057166 0.337333 -2.871232
2006-11-28 08:02:09 51°13.721 2°55.712 -999 0.057166 0.337333 -2.871232
2006-11-28 08:02:14 51°13.722 2°55.712 -999 0.057166 0.337341 -2.871232
2006-11-28 08:02:18 51°13.723 2°55.711 -999 0.057166 0.337341 -2.871232
2006-11-28 08:02:24 51°13.725 2°55.711 -999 0.057166 0.337348 -2.871232
2006-11-28 08:02:29 51°13.727 2°55.71 -999 0.057166 0.337348 -2.871232
2006-11-28 08:02:34 51°13.729 2°55.709 -999 0.057166 0.337355 -2.871232
2006-11-28 08:02:39 51°13.732 2°55.708 -999 0.057166 0.337355 -2.871232
2006-11-28 08:02:44 51°13.734 2°55.707 -999 0.057166 0.337355 -2.871232
2006-11-28 08:02:48 51°13.736 2°55.706 -999 0.057166 0.337363 -2.871232
2006-11-28 08:02:53 51°13.739 2°55.704 -999 0.057269 0.337982 -2.871232
2006-11-28 08:02:58 51°13.743 2°55.702 -999 0.057166 0.337363 -2.871232
2006-11-28 08:03:03 51°13.746 2°55.699 -999 0.057166 0.337355 -2.871232
2006-11-28 08:03:08 51°13.751 2°55.696 -999 0.057166 0.337355 -2.871232
2006-11-28 08:03:13 51°13.755 2°55.693 -999 0.057166 0.337363 -2.871232
2006-11-28 08:03:18 51°13.76 2°55.69 -999 0.057269 0.337982 -2.871232
2006-11-28 08:03:23 51°13.765 2°55.687 -999 0.057166 0.337355 -2.871232
2006-11-28 08:03:28 51°13.771 2°55.683 -999 0.057269 0.337982 -2.871232
2006-11-28 08:03:33 51°13.776 2°55.679 -999 0.057166 0.337355 -2.871232
2006-11-28 08:03:38 51°13.782 2°55.675 -999 0.057166 0.337355 -2.871232
2006-11-28 08:03:43 51°13.788 2°55.671 -999 0.057166 0.337355 -2.871232
2006-11-28 08:03:48 51°13.795 2°55.666 -999 0.057166 0.337355 -2.871232
2006-11-28 08:03:53 51°13.802 2°55.661 -999 0.057166 0.337355 -2.871232
2006-11-28 08:03:58 51°13.81 2°55.656 -999 0.057269 0.337982 -2.871232
2006-11-28 08:04:03 51°13.818 2°55.65 -999 0.057166 0.337355 -2.871232
2006-11-28 08:04:08 51°13.827 2°55.644 -999 0.057166 0.337355 -2.871232
2006-11-28 08:04:13 51°13.836 2°55.638 -999 0.057166 0.337355 -2.871232
2006-11-28 08:04:18 51°13.846 2°55.632 -999 0.057166 0.337363 -2.871232
2006-11-28 08:04:23 51°13.856 2°55.624 -999 0.057166 0.337363 -2.871232
2006-11-28 08:04:28 51°13.865 2°55.618 -999 0.057166 0.337363 -2.871232
2006-11-28 08:04:33 51°13.874 2°55.611 -999 0.057166 0.337355 -2.871232
2006-11-28 08:04:38 51°13.884 2°55.605 -999 0.057166 0.337355 -2.871232
2006-11-28 08:04:44 51°13.894 2°55.598 -999 0.057166 0.337363 -2.871232
2006-11-28 08:04:48 51°13.901 2°55.593 -999 0.057166 0.337363 -2.871232
2006-11-28 08:04:53 51°13.91 2°55.587 -999 0.057166 0.337363 -2.871232
2006-11-28 08:04:58 51°13.918 2°55.581 -999 0.057166 0.337363 -2.871232
2006-11-28 08:05:03 51°13.926 2°55.575 -999 0.057166 0.337363 -2.871232
2006-11-28 08:05:08 51°13.934 2°55.57 -999 0.057166 0.337363 -2.871232
2006-11-28 08:05:13 51°13.942 2°55.564 -999 0.057166 0.337363 -2.871232
2006-11-28 08:05:18 51°13.95 2°55.559 -999 0.057166 0.337363 -2.871232
2006-11-28 08:05:23 51°13.958 2°55.554 -999 0.057166 0.33737 -2.871232
2006-11-28 08:05:28 51°13.965 2°55.549 -999 0.057166 0.33737 -2.871232
2006-11-28 08:05:34 51°13.974 2°55.543 -999 0.057166 0.33737 -2.871232
2006-11-28 08:05:38 51°13.98 2°55.539 -999 0.057166 0.33737 -2.871232
2006-11-28 08:05:43 51°13.988 2°55.534 -999 0.057166 0.337377 -2.871232
2006-11-28 08:05:48 51°13.995 2°55.529 -999 0.057166 0.337377 -2.871232
2006-11-28 08:05:53 51°14.003 2°55.524 -999 0.057166 0.337377 -2.871232
2006-11-28 08:05:58 51°14.01 2°55.519 -999 0.057166 0.337377 -2.871232
2006-11-28 08:06:03 51°14.017 2°55.514 -999 0.057166 0.337377 -2.871232
2006-11-28 08:06:08 51°14.024 2°55.509 -999 0.057166 0.337377 -2.871232
2006-11-28 08:06:13 51°14.031 2°55.504 -999 0.057166 0.337384 -2.871232
2006-11-28 08:06:19 51°14.039 2°55.499 -999 0.057166 0.337384 -2.871232
2006-11-28 08:06:24 51°14.046 2°55.493 -999 0.057269 0.338011 -2.871232
2006-11-28 08:06:28 51°14.052 2°55.489 -999 0.057166 0.337384 -2.871232
2006-11-28 08:06:33 51°14.058 2°55.484 -999 0.057166 0.337384 -2.871232
2006-11-28 08:06:38 51°14.065 2°55.479 -999 0.057166 0.337384 -2.871232
2006-11-28 08:06:43 51°14.072 2°55.474 -999 0.057166 0.337377 -2.871232
2006-11-28 08:06:48 51°14.08 2°55.469 -999 0.057166 0.337377 -2.871232
2006-11-28 08:06:53 51°14.087 2°55.464 -999 0.057166 0.337377 -2.871232
2006-11-28 08:06:58 51°14.094 2°55.458 -999 0.057166 0.337377 -2.871232
2006-11-28 08:07:04 51°14.104 2°55.452 -999 0.057166 0.337377 -2.871232
2006-11-28 08:07:08 51°14.11 2°55.447 -999 0.057166 0.337377 -2.871232
2006-11-28 08:07:14 51°14.12 2°55.44 -999 0.057166 0.337377 -2.871232
2006-11-28 08:07:18 51°14.127 2°55.435 -999 0.057166 0.337377 -2.871232
2006-11-28 08:07:23 51°14.136 2°55.429 -999 0.057166 0.337377 -2.871232
2006-11-28 08:07:28 51°14.146 2°55.422 -999 0.057166 0.337377 -2.871232
2006-11-28 08:07:33 51°14.156 2°55.415 -999 0.057166 0.337377 -2.871232
2006-11-28 08:07:38 51°14.165 2°55.407 -999 0.057166 0.337377 -2.871232
2006-11-28 08:07:43 51°14.176 2°55.399 -999 0.057166 0.337384 -2.871232
2006-11-28 08:07:48 51°14.186 2°55.39 -999 0.057166 0.337384 -2.871232
2006-11-28 08:07:54 51°14.199 2°55.378 -999 0.057166 0.337384 -2.871232
2006-11-28 08:07:58 51°14.207 2°55.37 -999 0.057166 0.337392 -2.871232
2006-11-28 08:08:04 51°14.219 2°55.357 -999 0.057166 0.337392 -2.871232
2006-11-28 08:08:08 51°14.228 2°55.348 -999 0.057166 0.337392 -2.871232
2006-11-28 08:08:14 51°14.24 2°55.334 -999 0.057166 0.337392 -2.871232
2006-11-28 08:08:18 51°14.248 2°55.323 -999 0.057166 0.337392 -2.871232
2006-11-28 08:08:23 51°14.258 2°55.311 -999 0.057166 0.337392 -2.871232
2006-11-28 08:08:28 51°14.267 2°55.297 -999 0.057166 0.337399 -2.871232
2006-11-28 08:08:33 51°14.277 2°55.283 -999 0.057166 0.337399 -2.871232
2006-11-28 08:08:39 51°14.287 2°55.266 -999 0.057166 0.337399 -2.871232
2006-11-28 08:08:43 51°14.294 2°55.255 -999 0.057166 0.337399 -2.871232
2006-11-28 08:08:48 51°14.302 2°55.24 -999 0.057166 0.337399 -2.871232
2006-11-28 08:08:53 51°14.31 2°55.225 -999 0.057166 0.337399 -2.871232
2006-11-28 08:08:58 51°14.319 2°55.209 -999 0.057166 0.337392 -2.871232
2006-11-28 08:09:04 51°14.329 2°55.19 -999 0.057166 0.337392 -2.871232
2006-11-28 08:09:08 51°14.336 2°55.176 -999 0.057166 0.337392 -2.871232
2006-11-28 08:09:14 51°14.347 2°55.156 -999 0.057166 0.337399 -2.871232
2006-11-28 08:09:18 51°14.353 2°55.141 -999 0.057166 0.337399 -2.871232
2006-11-28 08:09:23 51°14.362 2°55.123 -999 0.057166 0.337392 -2.871232
2006-11-28 08:09:28 51°14.371 2°55.104 -999 0.057166 0.337392 -2.871232
2006-11-28 08:09:34 51°14.382 2°55.081 -999 0.057166 0.337392 -2.871232
2006-11-28 08:09:38 51°14.39 2°55.066 -999 0.057166 0.337392 -2.871232
2006-11-28 08:09:43 51°14.399 2°55.046 -999 0.057166 0.337392 -2.871232
2006-11-28 08:09:48 51°14.407 2°55.025 -999 0.057166 0.337392 -2.871232
2006-11-28 08:09:54 51°14.418 2°54.998 -999 0.057166 0.337399 -2.871232
2006-11-28 08:09:58 51°14.424 2°54.98 -999 0.057166 0.337399 -2.871232
2006-11-28 08:10:03 51°14.431 2°54.957 -999 0.057166 0.337399 -2.871232
2006-11-28 08:10:08 51°14.438 2°54.933 -999 0.057166 0.337399 -2.871232
2006-11-28 08:10:13 51°14.445 2°54.909 -999 0.057166 0.337399 -2.871232
2006-11-28 08:10:18 51°14.45 2°54.884 -999 0.057166 0.337406 -2.871232
2006-11-28 08:10:24 51°14.455 2°54.853 -999 0.057166 0.337406 -2.871232
2006-11-28 08:10:28 51°14.459 2°54.833 -999 0.057166 0.337406 -2.871232
2006-11-28 08:10:33 51°14.463 2°54.807 -999 0.057166 0.337399 -2.871232
2006-11-28 08:10:38 51°14.466 2°54.781 -999 0.057166 0.337399 -2.871232
2006-11-28 08:10:43 51°14.469 2°54.754 -999 0.057166 0.337399 -2.871232
2006-11-28 08:10:48 51°14.472 2°54.728 -999 0.057166 0.337399 -2.871232
2006-11-28 08:10:53 51°14.475 2°54.701 -999 0.057166 0.337399 -2.871232
2006-11-28 08:10:58 51°14.477 2°54.674 -999 0.057166 0.337399 -2.871232
2006-11-28 08:11:04 51°14.478 2°54.64 -999 0.057166 0.337399 -2.871232
2006-11-28 08:11:08 51°14.479 2°54.618 -999 0.057166 0.337399 -2.871232
2006-11-28 08:11:13 51°14.479 2°54.591 -999 0.057166 0.337406 -2.871232
2006-11-28 08:11:18 51°14.478 2°54.563 -999 0.057166 0.337406 -2.871232
2006-11-28 08:11:23 51°14.476 2°54.535 -999 0.057166 0.337406 -2.871232
2006-11-28 08:11:28 51°14.474 2°54.507 -999 0.057166 0.337406 -2.871232
2006-11-28 08:11:33 51°14.47 2°54.48 -999 0.057166 0.337406 -2.871232
2006-11-28 08:11:38 51°14.465 2°54.453 -999 0.057166 0.337406 -2.871232
2006-11-28 08:11:43 51°14.46 2°54.426 -999 0.057166 0.337406 -2.871232
2006-11-28 08:11:48 51°14.453 2°54.399 -999 0.057166 0.337406 -2.871232
2006-11-28 08:11:53 51°14.446 2°54.373 -999 0.057166 0.337406 -2.871232
2006-11-28 08:11:58 51°14.439 2°54.347 -999 0.057166 0.337399 -2.871232
2006-11-28 08:12:03 51°14.431 2°54.321 -999 0.057166 0.337399 -2.871232
2006-11-28 08:12:08 51°14.422 2°54.296 -999 0.057166 0.337399 -2.871232
2006-11-28 08:12:14 51°14.412 2°54.267 -999 0.057166 0.337406 -2.871232
2006-11-28 08:12:18 51°14.404 2°54.247 -999 0.057166 0.337406 -2.871232
2006-11-28 08:12:24 51°14.393 2°54.218 -999 0.057166 0.337399 -2.871232
2006-11-28 08:12:28 51°14.385 2°54.198 -999 0.057166 0.337406 -2.871232
2006-11-28 08:12:33 51°14.376 2°54.174 -999 0.057166 0.337406 -2.871232
2006-11-28 08:12:38 51°14.367 2°54.15 -999 0.057166 0.337406 -2.871232
2006-11-28 08:12:44 51°14.355 2°54.12 -999 0.057166 0.337406 -2.871232
2006-11-28 08:12:48 51°14.348 2°54.1 -999 0.057166 0.337406 -2.871232
2006-11-28 08:12:53 51°14.338 2°54.076 -999 0.057166 0.337406 -2.871232
2006-11-28 08:12:58 51°14.329 2°54.051 -999 0.057166 0.337406 -2.871232
2006-11-28 08:13:03 51°14.319 2°54.026 -999 0.057166 0.337406 -2.871232
2006-11-28 08:13:08 51°14.31 2°54.002 -999 0.057166 0.337406 -2.871232
2006-11-28 08:13:13 51°14.3 2°53.977 -999 0.057166 0.337406 -2.871232
2006-11-28 08:13:18 51°14.291 2°53.952 -999 0.057166 0.337406 -2.871232
2006-11-28 08:13:24 51°14.28 2°53.922 -999 0.057166 0.337414 -2.871232
2006-11-28 08:13:28 51°14.272 2°53.902 -999 0.057166 0.337414 -2.871232
2006-11-28 08:13:33 51°14.262 2°53.877 -999 0.057166 0.337414 -2.871232
2006-11-28 08:13:38 51°14.253 2°53.852 -999 0.057166 0.337414 -2.871232
2006-11-28 08:13:43 51°14.244 2°53.827 -999 0.057166 0.337421 -2.871232
2006-11-28 08:13:48 51°14.234 2°53.802 -999 0.057269 0.338048 -2.871232
2006-11-28 08:13:53 51°14.224 2°53.777 -999 0.057166 0.337421 -2.871232
2006-11-28 08:13:59 51°14.213 2°53.748 -999 0.057166 0.337421 -2.871232
2006-11-28 08:14:03 51°14.206 2°53.727 -999 0.057166 0.337428 -2.871232
2006-11-28 08:14:08 51°14.196 2°53.702 -999 0.057166 0.337428 -2.871232
2006-11-28 08:14:13 51°14.187 2°53.677 -999 0.057166 0.337428 -2.871232
2006-11-28 08:14:18 51°14.177 2°53.652 -999 0.057166 0.337436 -2.871232
2006-11-28 08:14:23 51°14.168 2°53.627 -999 0.057166 0.337436 -2.871232
2006-11-28 08:14:28 51°14.158 2°53.602 -999 0.057166 0.337443 -2.871232
2006-11-28 08:14:33 51°14.149 2°53.577 -999 0.057166 0.337443 -2.871232
2006-11-28 08:14:38 51°14.14 2°53.552 -999 0.057166 0.337443 -2.871232
2006-11-28 08:14:43 51°14.13 2°53.526 -999 0.057166 0.337443 -2.871232
2006-11-28 08:14:48 51°14.121 2°53.501 -999 0.057166 0.33745 -2.871232
2006-11-28 08:14:52 51°14.113 2°53.481 -999 0.057166 0.33745 -2.871232
2006-11-28 08:14:58 51°14.102 2°53.451 -999 0.057166 0.33745 -2.871232
2006-11-28 08:15:04 51°14.091 2°53.421 -999 0.057166 0.337457 -2.871232
2006-11-28 08:15:08 51°14.083 2°53.401 -999 0.057166 0.337457 -2.871232
2006-11-28 08:15:14 51°14.072 2°53.37 -999 -999 -999 -2.871232
2006-11-28 08:15:18 51°14.065 2°53.35 -999 0.057166 0.337457 -2.871232
2006-11-28 08:15:23 51°14.055 2°53.325 -999 0.057166 0.337457 -2.871232
2006-11-28 08:15:28 51°14.046 2°53.3 -999 0.057166 0.337465 -2.871232
2006-11-28 08:15:32 51°14.039 2°53.28 -999 0.057166 0.337465 -2.871232
2006-11-28 08:15:38 51°14.027 2°53.25 -999 0.057166 0.337465 -2.871232
2006-11-28 08:15:44 51°14.016 2°53.22 -999 0.057166 0.337465 -2.871232
2006-11-28 08:15:48 51°14.008 2°53.2 -999 0.057166 0.337465 -2.871232
2006-11-28 08:15:53 51°13.998 2°53.175 -999 0.057166 0.337465 -2.871232
2006-11-28 08:15:58 51°13.989 2°53.15 -999 0.057166 0.337465 -2.871232
2006-11-28 08:16:03 51°13.98 2°53.124 -999 0.057166 0.337465 -2.871232
2006-11-28 08:16:08 51°13.971 2°53.099 -999 0.057166 0.337465 -2.871232
2006-11-28 08:16:13 51°13.962 2°53.074 -999 0.057166 0.337465 -2.871232
2006-11-28 08:16:18 51°13.952 2°53.048 -999 0.057166 0.337465 -2.871232
2006-11-28 08:16:23 51°13.943 2°53.023 -999 0.057166 0.337472 -2.871232
2006-11-28 08:16:28 51°13.933 2°52.998 -999 0.057166 0.337465 -2.871232
2006-11-28 08:16:33 51°13.924 2°52.973 -999 0.057166 0.337472 -2.871232
2006-11-28 08:16:38 51°13.914 2°52.948 -999 0.057166 0.337472 -2.871232
2006-11-28 08:16:43 51°13.905 2°52.923 -999 0.057166 0.337472 -2.871232
2006-11-28 08:16:48 51°13.896 2°52.897 -999 0.057166 0.337472 -2.871232
2006-11-28 08:16:54 51°13.884 2°52.867 -999 0.057166 0.337472 -2.871232
2006-11-28 08:16:59 51°13.875 2°52.842 -999 0.057166 0.337479 -2.871232
2006-11-28 08:17:03 51°13.868 2°52.821 -999 0.057166 0.337479 -2.871232
2006-11-28 08:17:08 51°13.858 2°52.796 -999 0.057166 0.337479 -2.871232
2006-11-28 08:17:12 51°13.851 2°52.776 -999 0.057166 0.337479 -2.871232
2006-11-28 08:17:18 51°13.839 2°52.746 -999 0.057166 0.337479 -2.871232
2006-11-28 08:17:23 51°13.83 2°52.721 -999 0.057166 0.337479 -2.871232
2006-11-28 08:17:28 51°13.821 2°52.695 -999 0.057166 0.337479 -2.871232
2006-11-28 08:17:33 51°13.812 2°52.67 -999 0.057166 0.337487 -2.871232
2006-11-28 08:17:38 51°13.802 2°52.645 -999 0.057166 0.337487 -2.871232
2006-11-28 08:17:43 51°13.793 2°52.62 -999 0.057166 0.337487 -2.871232
2006-11-28 08:17:48 51°13.784 2°52.595 -999 0.057166 0.337487 -2.871232
2006-11-28 08:17:53 51°13.774 2°52.569 -999 0.057166 0.337494 -2.871232
2006-11-28 08:17:58 51°13.765 2°52.544 -999 0.057166 0.337494 -2.871232
2006-11-28 08:18:04 51°13.754 2°52.514 -999 0.057166 0.337494 -2.871232
2006-11-28 08:18:08 51°13.747 2°52.494 -999 0.057166 0.337494 -2.871232
2006-11-28 08:18:13 51°13.737 2°52.468 -999 0.057165 0.310272 -2.871232
2006-11-28 08:18:18 51°13.728 2°52.443 -999 0.057166 0.337501 -2.871232
2006-11-28 08:18:23 51°13.719 2°52.418 -999 0.057166 0.337501 -2.871232
2006-11-28 08:18:28 51°13.71 2°52.392 -999 0.05717 -999 -2.871232
2006-11-28 08:18:33 51°13.701 2°52.367 -999 0.057166 0.337509 -2.871232
2006-11-28 08:18:38 51°13.691 2°52.342 -999 0.057166 0.337509 -2.871232
2006-11-28 08:18:43 51°13.682 2°52.317 -999 0.057166 0.337509 -2.871232
2006-11-28 08:18:48 51°13.672 2°52.292 -999 0.057166 0.337509 -2.871232
2006-11-28 08:18:54 51°13.661 2°52.262 -999 0.057166 0.337509 -2.871232
2006-11-28 08:18:58 51°13.654 2°52.242 -999 0.057166 0.337516 -2.871232
2006-11-28 08:19:03 51°13.645 2°52.217 -999 0.057166 0.337516 -2.871232
2006-11-28 08:19:08 51°13.635 2°52.191 -999 0.057166 0.337516 -2.871232
2006-11-28 08:19:14 51°13.624 2°52.16 -999 -999 -999 -2.871232
2006-11-28 08:19:18 51°13.617 2°52.14 -999 0.057166 0.337523 -2.871232
2006-11-28 08:19:23 51°13.607 2°52.115 -999 -999 -999 -2.871232
2006-11-28 08:19:28 51°13.598 2°52.089 -999 0.057166 0.337531 -2.871232
2006-11-28 08:19:33 51°13.589 2°52.064 -999 0.057166 0.337531 -2.871232
2006-11-28 08:19:38 51°13.58 2°52.039 -999 0.057166 0.337531 -2.871232
2006-11-28 08:19:43 51°13.57 2°52.013 -999 0.057166 0.337531 -2.871232
2006-11-28 08:19:48 51°13.561 2°51.988 -999 0.057166 0.337538 -2.871232
2006-11-28 08:19:53 51°13.552 2°51.962 -999 0.057166 0.337538 -2.871232
2006-11-28 08:19:58 51°13.543 2°51.937 -999 0.057166 0.337538 -2.871232
2006-11-28 08:20:03 51°13.534 2°51.912 -999 0.057165 0.310308 -2.871232
2006-11-28 08:20:08 51°13.524 2°51.886 -999 0.057165 0.310308 -2.871232
2006-11-28 08:20:13 51°13.515 2°51.861 -999 0.05717 -999 -2.871232
2006-11-28 08:20:18 51°13.506 2°51.836 -999 -999 -999 -2.871232
2006-11-28 08:20:24 51°13.495 2°51.805 -999 0.057166 0.337552 -2.871232
2006-11-28 08:20:28 51°13.487 2°51.785 -999 0.05717 -999 -2.871232
2006-11-28 08:20:33 51°13.478 2°51.76 -999 0.057165 0.31032 -2.871232
2006-11-28 08:20:38 51°13.469 2°51.734 -999 0.057165 0.31032 -2.871232
2006-11-28 08:20:43 51°13.46 2°51.709 -999 -999 -999 -2.871232
2006-11-28 08:20:48 51°13.451 2°51.683 -999 0.057166 0.33756 -2.871232
2006-11-28 08:20:53 51°13.441 2°51.658 -999 0.05717 -999 -2.871232
2006-11-28 08:20:58 51°13.432 2°51.632 -999 0.05717 -999 -2.871232
2006-11-28 08:21:03 51°13.423 2°51.607 -999 -999 -999 -2.871232
2006-11-28 08:21:08 51°13.413 2°51.581 -999 -999 -999 -2.871232
2006-11-28 08:21:13 51°13.404 2°51.556 -999 -999 -999 -2.871232
2006-11-28 08:21:19 51°13.393 2°51.525 -999 0.057166 0.337574 -2.871232
2006-11-28 08:21:24 51°13.384 2°51.5 -999 0.057166 0.337582 -2.871232
2006-11-28 08:21:28 51°13.376 2°51.48 -999 0.057166 0.337582 -2.871232
2006-11-28 08:21:33 51°13.367 2°51.454 -999 0.057166 0.337582 -2.871232
2006-11-28 08:21:38 51°13.358 2°51.429 -999 0.057166 0.337582 -2.871232
2006-11-28 08:21:43 51°13.349 2°51.403 -999 0.057166 0.337589 -2.871232
2006-11-28 08:21:48 51°13.34 2°51.378 -999 0.057166 0.337589 -2.871232
2006-11-28 08:21:53 51°13.331 2°51.352 -999 0.057166 0.337596 -2.871232
2006-11-28 08:21:58 51°13.321 2°51.327 -999 0.057166 0.337596 -2.871232
2006-11-28 08:22:03 51°13.312 2°51.301 -999 0.057166 0.337596 -2.871232
2006-11-28 08:22:08 51°13.303 2°51.276 -999 0.057166 0.337596 -2.871232
2006-11-28 08:22:13 51°13.294 2°51.25 -999 0.057166 0.337596 -2.871232
2006-11-28 08:22:18 51°13.285 2°51.225 -999 0.057166 0.337604 -2.871232
2006-11-28 08:22:24 51°13.274 2°51.194 -999 0.057166 0.337604 -2.871232
2006-11-28 08:22:28 51°13.267 2°51.174 -999 0.057166 0.337611 -2.871232
2006-11-28 08:22:33 51°13.258 2°51.148 -999 0.057166 0.337611 -2.871232
2006-11-28 08:22:38 51°13.248 2°51.123 -999 0.057166 0.337611 -2.871232
2006-11-28 08:22:44 51°13.237 2°51.092 -999 0.057166 0.337618 -2.871232
2006-11-28 08:22:48 51°13.23 2°51.072 -999 0.057166 0.337618 -2.871232
2006-11-28 08:22:53 51°13.221 2°51.046 -999 0.057166 0.337618 -2.871232
2006-11-28 08:22:58 51°13.211 2°51.021 -999 0.057166 0.337618 -2.871232
2006-11-28 08:23:03 51°13.202 2°50.995 -999 0.057166 0.337618 -2.871232
2006-11-28 08:23:08 51°13.193 2°50.97 -999 0.057166 0.337618 -2.871232
2006-11-28 08:23:13 51°13.184 2°50.945 -999 0.057166 0.337618 -2.871232
2006-11-28 08:23:18 51°13.174 2°50.919 -999 0.05717 -999 -2.871232
2006-11-28 08:23:23 51°13.165 2°50.893 -999 0.057165 0.310381 -2.871232
2006-11-28 08:23:28 51°13.156 2°50.868 -999 0.057166 0.337633 -2.871232
2006-11-28 08:23:33 51°13.147 2°50.842 -999 0.057166 0.337633 -2.871232
2006-11-28 08:23:38 51°13.138 2°50.816 -999 0.057166 0.337633 -2.871232
2006-11-28 08:23:43 51°13.129 2°50.791 -999 -999 -999 -2.871232
2006-11-28 08:23:48 51°13.12 2°50.765 -999 -999 -999 -2.871232
2006-11-28 08:23:53 51°13.11 2°50.74 -999 -999 -999 -2.871232
2006-11-28 08:23:58 51°13.101 2°50.714 -999 0.057166 0.337648 -2.871232
2006-11-28 08:24:03 51°13.092 2°50.689 -999 0.057166 0.337648 -2.871232
2006-11-28 08:24:08 51°13.083 2°50.663 -999 0.057166 0.337648 -2.871232
2006-11-28 08:24:13 51°13.074 2°50.638 -999 0.057166 0.337648 -2.871232
2006-11-28 08:24:18 51°13.065 2°50.612 -999 0.057166 0.337648 -2.871232
2006-11-28 08:24:23 51°13.056 2°50.587 -999 0.057166 0.337648 -2.871232
2006-11-28 08:24:28 51°13.047 2°50.561 -999 -999 -999 -999
2006-11-28 08:24:33 51°13.037 2°50.535 -999 -999 -999 -999
2006-11-28 08:24:38 51°13.028 2°50.51 -999 -999 -999 -999
2006-11-28 08:24:44 51°13.017 2°50.479 -999 -999 -999 -999
2006-11-28 08:24:48 51°13.01 2°50.459 -999 -999 -999 -999
2006-11-28 08:24:53 51°13.001 2°50.433 -999 -999 -999 -999
2006-11-28 08:24:58 51°12.992 2°50.407 -999 -999 -999 -999
2006-11-28 08:25:03 51°12.983 2°50.382 -999 -999 -999 -999
2006-11-28 08:25:08 51°12.973 2°50.356 -999 -999 -999 -999
2006-11-28 08:25:13 51°12.964 2°50.33 -999 -999 -999 -999
2006-11-28 08:25:18 51°12.955 2°50.304 -999 -999 -999 -999
2006-11-28 08:25:24 51°12.944 2°50.274 -999 -999 -999 -999
2006-11-28 08:25:28 51°12.936 2°50.253 -999 -999 -999 -999
2006-11-28 08:25:33 51°12.927 2°50.228 -999 -999 -999 -999
2006-11-28 08:25:38 51°12.918 2°50.202 -999 -999 -999 -999
2006-11-28 08:25:44 51°12.907 2°50.171 -999 0.057166 0.337684 -2.871232
2006-11-28 08:25:48 51°12.9 2°50.15 -999 0.057166 0.337684 -2.871232
2006-11-28 08:25:54 51°12.889 2°50.12 -999 0.057166 0.337684 -2.871232
2006-11-28 08:25:58 51°12.881 2°50.099 -999 0.057166 0.337684 -2.871232
2006-11-28 08:26:03 51°12.872 2°50.073 -999 0.057166 0.337684 -2.871232
2006-11-28 08:26:08 51°12.863 2°50.048 -999 0.057166 0.337684 -2.871232
2006-11-28 08:26:13 51°12.854 2°50.022 -999 0.057166 0.337699 -2.871232
2006-11-28 08:26:18 51°12.844 2°49.996 -999 0.057166 0.337706 -2.871232
2006-11-28 08:26:24 51°12.833 2°49.966 -999 0.057166 0.337706 -2.871232
2006-11-28 08:26:28 51°12.826 2°49.945 -999 0.057166 0.337706 -2.871232
2006-11-28 08:26:33 51°12.817 2°49.919 -999 0.057166 0.337706 -2.871232
2006-11-28 08:26:38 51°12.808 2°49.894 -999 0.057166 0.337706 -2.871232
2006-11-28 08:26:43 51°12.799 2°49.868 -999 0.057166 0.337713 -2.871232
2006-11-28 08:26:48 51°12.79 2°49.842 -999 0.057166 0.337713 -2.871232
2006-11-28 08:26:52 51°12.783 2°49.821 -999 0.057166 0.337713 -2.871232
2006-11-28 08:26:58 51°12.772 2°49.791 -999 0.057166 0.337721 -2.871232
2006-11-28 08:27:03 51°12.763 2°49.765 -999 0.057166 0.337721 -2.871232
2006-11-28 08:27:08 51°12.753 2°49.739 -999 0.057166 0.337721 -2.871232
2006-11-28 08:27:13 51°12.744 2°49.714 -999 0.057166 0.337728 -2.871232
2006-11-28 08:27:18 51°12.735 2°49.688 -999 0.057166 0.337728 -2.871232
2006-11-28 08:27:24 51°12.724 2°49.658 -999 0.057166 0.337728 -2.871232
2006-11-28 08:27:28 51°12.717 2°49.637 -999 0.057166 0.337735 -2.871232
2006-11-28 08:27:33 51°12.708 2°49.612 -999 0.057166 0.337735 -2.871232
2006-11-28 08:27:38 51°12.699 2°49.586 -999 0.057166 0.337735 -2.871232
2006-11-28 08:27:43 51°12.69 2°49.561 -999 0.057166 0.337735 -2.871232
2006-11-28 08:27:48 51°12.681 2°49.535 -999 0.05717 -999 -2.871232
2006-11-28 08:27:53 51°12.672 2°49.509 -999 -999 -999 -2.871232
2006-11-28 08:27:58 51°12.663 2°49.484 -999 -999 -999 -2.871232
2006-11-28 08:28:04 51°12.651 2°49.453 -999 -999 -999 -2.871232
2006-11-28 08:28:08 51°12.644 2°49.432 -999 -999 -999 -2.871232
2006-11-28 08:28:13 51°12.635 2°49.407 -999 -999 -999 -2.871232
2006-11-28 08:28:18 51°12.626 2°49.381 -999 -999 -999 -2.871232
2006-11-28 08:28:23 51°12.617 2°49.355 -999 -999 -999 -999
2006-11-28 08:28:28 51°12.608 2°49.33 -999 0.057166 0.337757 -2.871232
2006-11-28 08:28:34 51°12.597 2°49.299 -999 0.057166 0.337757 -2.871232
2006-11-28 08:28:39 51°12.588 2°49.273 -999 0.057166 0.337757 -2.871232
2006-11-28 08:28:43 51°12.581 2°49.253 -999 0.057166 0.337757 -2.871232
2006-11-28 08:28:48 51°12.572 2°49.227 -999 0.057166 0.337757 -2.871232
2006-11-28 08:28:53 51°12.563 2°49.202 -999 0.057166 0.337757 -2.871232
2006-11-28 08:28:58 51°12.554 2°49.176 -999 -999 -999 -2.871232
2006-11-28 08:29:04 51°12.543 2°49.145 -999 0.057166 0.337772 -2.871232
2006-11-28 08:29:08 51°12.535 2°49.124 -999 0.057166 0.337772 -2.871232
2006-11-28 08:29:14 51°12.525 2°49.093 -999 0.057166 0.337772 -2.871232
2006-11-28 08:29:18 51°12.517 2°49.073 -999 0.057166 0.337772 -2.871232
2006-11-28 08:29:23 51°12.508 2°49.047 -999 0.057166 0.337779 -2.871232
2006-11-28 08:29:28 51°12.498 2°49.021 -999 0.057166 0.337779 -2.871232
2006-11-28 08:29:33 51°12.489 2°48.995 -999 0.057166 0.337779 -2.871232
2006-11-28 08:29:38 51°12.48 2°48.97 -999 0.057166 0.337779 -2.871232
2006-11-28 08:29:43 51°12.471 2°48.944 -999 -999 -999 -2.871232
2006-11-28 08:29:48 51°12.462 2°48.918 -999 -999 -999 -2.871232
2006-11-28 08:29:53 51°12.453 2°48.893 -999 -999 -999 -2.871232
2006-11-28 08:29:58 51°12.443 2°48.867 -999 -999 -999 -2.871232
2006-11-28 08:30:03 51°12.434 2°48.841 -999 -999 -999 -2.871232
2006-11-28 08:30:08 51°12.425 2°48.816 -999 -999 -999 -2.871232
2006-11-28 08:30:12 51°12.418 2°48.795 -999 -999 -999 -999
2006-11-28 08:30:18 51°12.407 2°48.764 -999 -999 -999 -999
2006-11-28 08:30:23 51°12.398 2°48.738 -999 -999 -999 -999
2006-11-28 08:30:28 51°12.389 2°48.713 -999 -999 -999 -999
2006-11-28 08:30:34 51°12.378 2°48.682 -999 -999 -999 -999
2006-11-28 08:30:38 51°12.37 2°48.662 -999 -999 -999 -999
2006-11-28 08:30:43 51°12.361 2°48.636 -999 -999 -999 -999
2006-11-28 08:30:48 51°12.352 2°48.61 -999 -999 -999 -999
2006-11-28 08:30:53 51°12.343 2°48.585 -999 -999 -999 -999
2006-11-28 08:30:58 51°12.334 2°48.56 -999 -999 -999 -999
2006-11-28 08:31:03 51°12.325 2°48.534 -999 -999 -999 -999
2006-11-28 08:31:08 51°12.316 2°48.508 -999 -999 -999 -999
2006-11-28 08:31:13 51°12.307 2°48.483 -999 -999 -999 -999
2006-11-28 08:31:19 51°12.296 2°48.452 -999 -999 -999 -999
2006-11-28 08:31:23 51°12.288 2°48.432 -999 -999 -999 -999
2006-11-28 08:31:28 51°12.279 2°48.406 -999 -999 -999 -999
2006-11-28 08:31:33 51°12.27 2°48.38 -999 -999 -999 -999
2006-11-28 08:31:38 51°12.261 2°48.355 -999 -999 -999 -999
2006-11-28 08:31:43 51°12.252 2°48.329 -999 -999 -999 -999